{"data":{"norad_id":66253,"epoch":"2026-09-20T23:02:16.376928Z","epoch_age_seconds":56920,"freshness":"FRESH","line1":"1 66253U 25245V   26263.95991177  .00010918  00000+0  36303-3 0  9993","line2":"2 66253  53.1562  95.4340 0001140  92.6050 267.5082 15.31704252 50969","mean_motion":15.31704252,"eccentricity":0.000114,"inclination_deg":53.1562,"raan_deg":95.434,"arg_perigee_deg":92.605,"mean_anomaly_deg":267.5082,"bstar":0.00036303,"rev_number":5096,"period_min":94.012926981155,"perigee_km":469.94654973172,"apogee_km":471.50809079673,"semimajor_km":6848.8643202642,"source":"CELESTRAK","updated_at":"2026-09-21T09:00:35.849812Z"}}